Wakefield, VA

12:55 PM EDT on June 22, 2017 (GMT -0400)
Wakefield Municipal

Weather History for KAKQ - December, 2012

Change the Weather History Date:

Thursday, December 27, 2012

  Actual Average (KJGG) Record (KJGG)
Temperature  
Mean Temperature 42 °F -  
Max Temperature 50 °F 46 °F 78 °F (2015)
Min Temperature 32 °F 27 °F 9 °F (1985)
Degree Days  
Heating Degree Days 22    
Moisture  
Dew Point 30 °F    
Average Humidity 67    
Maximum Humidity 93    
Minimum Humidity 26    
Precipitation  
Precipitation 0.00 in - - ()
Sea Level Pressure  
Sea Level Pressure 29.79 in    
Wind  
Wind Speed 9 mph (West)    
Max Wind Speed 15 mph    
Max Gust Speed 23 mph    
Visibility 10 miles    
Events      
Averages and records for this station are not official NWS values.
T = Trace of Precipitation, MM = Missing Value Source: NWS Daily Summary

Daily Weather History Graph

Daily Weather History Graph

Search for Another Location

Airport or City:

Trip Planner

Search our weather history database for the weather conditions in past years. The results will help you decide how hot, cold, wet, or windy it might be!

Date:

Astronomy

Dec. 27, 2012 Rise Set
Actual Time 7:20 AM EST 4:58 PM EST
Civil Twilight 6:51 AM EST 5:27 PM EST
Nautical Twilight 6:18 AM EST 6:00 PM EST
Astronomical Twilight 5:47 AM EST 6:31 PM EST
Moon 4:39 PM EST (12/27) 6:30 AM EST (12/27)
Length of Visible Light 10h 36m
Length of Day
9h 38m
Full, 100% of the Moon is Illuminated
Dec 27
Full
Dec 28
Full
Jan 4
Last Quarter
Jan 11
New
Jan 18
First Quarter

Hourly Weather History & Observations

Time (EST) Temp. Windchill Dew Point Humidity Pressure Visibility Wind Dir Wind Speed Gust Speed Precip Events Conditions
12:54 AM 39.9 °F 34.5 °F 37.0 °F 89% 29.52 in 10.0 mi WSW 8.1 mph - N/A   Overcast
1:08 AM 39.2 °F 33.6 °F 37.4 °F 93% 29.51 in 10.0 mi WSW 8.1 mph - N/A   Mostly Cloudy
1:32 AM 39.2 °F 32.5 °F 37.4 °F 93% 29.52 in 10.0 mi WSW 10.4 mph 16.1 mph N/A   Scattered Clouds
1:54 AM 39.9 °F 32.5 °F 37.0 °F 89% 29.54 in 10.0 mi WSW 12.7 mph 19.6 mph N/A   Partly Cloudy
2:54 AM 39.9 °F 33.4 °F 37.0 °F 89% 29.56 in 10.0 mi WSW 10.4 mph 18.4 mph N/A   Scattered Clouds
3:54 AM 39.9 °F 35.1 °F 36.0 °F 86% 29.58 in 10.0 mi WSW 6.9 mph - N/A   Clear
4:54 AM 39.9 °F 33.9 °F 35.1 °F 83% 29.60 in 10.0 mi West 9.2 mph - N/A   Clear
5:54 AM 39.9 °F 35.1 °F 34.0 °F 79% 29.63 in 10.0 mi WSW 6.9 mph - N/A   Clear
6:54 AM 39.0 °F 32.8 °F 33.1 °F 79% 29.68 in 10.0 mi West 9.2 mph - N/A   Clear
7:54 AM 39.0 °F 30.6 °F 32.0 °F 76% 29.72 in 10.0 mi West 15.0 mph 20.7 mph N/A   Clear
8:54 AM 41.0 °F 34.3 °F 30.9 °F 67% 29.76 in 10.0 mi West 11.5 mph 18.4 mph N/A   Clear
9:54 AM 44.1 °F 38.1 °F 28.9 °F 55% 29.81 in 10.0 mi WNW 11.5 mph 23.0 mph N/A   Clear
10:54 AM 46.0 °F 40.6 °F 26.1 °F 46% 29.82 in 10.0 mi NW 11.5 mph 20.7 mph N/A   Clear
11:54 AM 48.0 °F - 25.0 °F 41% 29.83 in 10.0 mi NW 10.4 mph 20.7 mph N/A   Clear
12:54 PM 48.9 °F - 25.0 °F 39% 29.83 in 10.0 mi NNW 8.1 mph 23.0 mph N/A   Partly Cloudy
1:54 PM 50.0 °F - 16.0 °F 26% 29.84 in 10.0 mi West 10.4 mph 17.3 mph N/A   Clear
3:54 PM 48.9 °F - 27.0 °F 43% 29.88 in 10.0 mi Variable 6.9 mph 18.4 mph N/A   Clear
4:54 PM 45.0 °F 41.2 °F 28.0 °F 52% 29.91 in 10.0 mi West 6.9 mph - N/A   Clear
5:54 PM 43.0 °F 39.5 °F 27.0 °F 53% 29.96 in 10.0 mi West 5.8 mph - N/A   Clear
6:54 PM 41.0 °F 39.0 °F 27.0 °F 57% 29.98 in 10.0 mi West 3.5 mph - N/A   Clear
7:54 PM 39.0 °F 35.7 °F 27.0 °F 62% 30.00 in 10.0 mi West 4.6 mph - N/A   Clear
8:54 PM 37.9 °F 33.5 °F 27.0 °F 65% 30.01 in 10.0 mi WNW 5.8 mph - N/A   Clear
9:54 PM 37.0 °F 33.3 °F 25.0 °F 62% 30.04 in 10.0 mi WNW 4.6 mph - N/A   Clear
10:54 PM 35.1 °F - 25.0 °F 67% 30.06 in 10.0 mi Calm Calm - N/A   Clear
11:54 PM 32.0 °F - 25.0 °F 75% 30.07 in 10.0 mi Calm Calm - N/A   Clear